Millbury, OH

10:43 PM EST on February 24, 2017 (GMT -0500)
Metcalf

Weather History for KTDZ - June, 2013

Change the Weather History Date:

Thursday, June 6, 2013

  Actual Average (KTOL) Record (KTOL)
Temperature  
Mean Temperature 62 °F -  
Max Temperature 66 °F 78 °F 96 °F (1925)
Min Temperature 57 °F 54 °F 38 °F (1998)
Degree Days  
Heating Degree Days 4    
Growing Degree Days 12 (Base 50)    
Moisture  
Dew Point 50 °F    
Average Humidity 66    
Maximum Humidity 81    
Minimum Humidity 60    
Precipitation  
Precipitation 0.04 in - - ()
Sea Level Pressure  
Sea Level Pressure 29.89 in    
Wind  
Wind Speed 10 mph (NE)    
Max Wind Speed 13 mph    
Max Gust Speed 21 mph    
Visibility 10 miles    
Events Rain    
Averages and records for this station are not official NWS values.
T = Trace of Precipitation, MM = Missing Value Source: NWS Daily Summary

Daily Weather History Graph

Daily Weather History Graph

Search for Another Location

Airport or City:

Trip Planner

Search our weather history database for the weather conditions in past years. The results will help you decide how hot, cold, wet, or windy it might be!

Date:

Astronomy

Jun. 06, 2013 Rise Set
Actual Time 6:00 AM EDT 9:05 PM EDT
Civil Twilight 5:26 AM EDT 9:38 PM EDT
Nautical Twilight 4:43 AM EDT 10:21 PM EDT
Astronomical Twilight 3:53 AM EDT 11:12 PM EDT
Moon 4:42 AM EDT (6/6) 7:24 PM EDT (6/6)
Length of Visible Light 16h 12m
Length of Day
15h 04m
Waning Crescent, 4% of the Moon is Illuminated
Jun 6
Waning Crescent
Jun 8
New
Jun 16
First Quarter
Jun 23
Full
Jun 30
Last Quarter

Hourly Weather History & Observations

Time (EDT) Temp. Dew Point Humidity Pressure Visibility Wind Dir Wind Speed Gust Speed Precip Events Conditions
12:53 AM 62.1 °F 50.0 °F 65% 29.97 in 10.0 mi ENE 12.7 mph - N/A   Clear
1:53 AM 61.0 °F 48.0 °F 62% 29.95 in 10.0 mi ENE 9.2 mph - N/A   Clear
2:53 AM 61.0 °F 48.0 °F 62% 29.94 in 10.0 mi NE 12.7 mph - N/A   Mostly Cloudy
3:53 AM 60.1 °F 46.9 °F 62% 29.92 in 10.0 mi ENE 12.7 mph 19.6 mph N/A   Scattered Clouds
4:53 AM 59.0 °F 46.0 °F 62% 29.91 in 10.0 mi NE 8.1 mph - N/A   Clear
5:53 AM 59.0 °F 46.9 °F 64% 29.90 in 10.0 mi NE 10.4 mph - N/A   Partly Cloudy
6:53 AM 57.9 °F 45.0 °F 62% 29.91 in 10.0 mi NE 8.1 mph 16.1 mph N/A   Clear
7:53 AM 59.0 °F 46.0 °F 62% 29.88 in 10.0 mi NE 8.1 mph 16.1 mph N/A   Clear
8:53 AM 60.1 °F 46.9 °F 62% 29.88 in 10.0 mi ENE 10.4 mph 20.7 mph N/A   Partly Cloudy
9:53 AM 61.0 °F 46.9 °F 60% 29.88 in 10.0 mi NE 9.2 mph - N/A   Mostly Cloudy
10:53 AM 60.1 °F 48.9 °F 67% 29.89 in 10.0 mi NE 10.4 mph - 0.00 in Rain Light Rain
11:53 AM 57.9 °F 52.0 °F 81% 29.90 in 10.0 mi NE 5.8 mph - 0.03 in Rain Light Rain
12:53 PM 61.0 °F 52.0 °F 72% 29.89 in 10.0 mi ENE 4.6 mph - 0.00 in   Overcast
1:53 PM 63.0 °F 52.0 °F 67% 29.88 in 10.0 mi ENE 12.7 mph - 0.01 in   Partly Cloudy
2:53 PM 66.0 °F 53.1 °F 63% 29.88 in 10.0 mi NE 10.4 mph 16.1 mph N/A   Clear
3:53 PM 64.9 °F 53.1 °F 65% 29.86 in 10.0 mi NNE 10.4 mph 19.6 mph N/A   Scattered Clouds
4:02 PM 66.2 °F 53.6 °F 64% 29.86 in 10.0 mi NNE 8.1 mph 17.3 mph N/A   Mostly Cloudy
4:53 PM 66.9 °F 54.0 °F 63% 29.86 in 10.0 mi ENE 9.2 mph - N/A   Mostly Cloudy
5:53 PM 66.0 °F 53.1 °F 63% 29.86 in 10.0 mi ENE 10.4 mph 17.3 mph N/A   Mostly Cloudy
6:53 PM 66.0 °F 54.0 °F 65% 29.86 in 10.0 mi ENE 8.1 mph - N/A   Partly Cloudy
7:53 PM 63.0 °F 53.1 °F 70% 29.86 in 10.0 mi ENE 9.2 mph - N/A   Clear
8:53 PM 62.1 °F 53.1 °F 72% 29.88 in 10.0 mi ENE 5.8 mph - N/A   Clear
9:53 PM 62.1 °F 52.0 °F 70% 29.88 in 10.0 mi NE 6.9 mph - N/A   Overcast
10:53 PM 60.1 °F 51.1 °F 72% 29.89 in 10.0 mi ENE 8.1 mph - N/A   Scattered Clouds
11:53 PM 59.0 °F 51.1 °F 75% 29.89 in 10.0 mi NE 4.6 mph - N/A   Clear